KB7STN Weather Reports


Display with metric or nautical units.
time (UTC)temp
F
wind
direction
speed
MPH
gust
MPH
rain 1hr
in
rain 24hr
in
rain mn
in
humidity
%
barometer
mb
20260831032634 66 98 0.0 0.0 0.00 0.15 0.04 63 1020.8
20260831032134 66 98 0.0 0.0 0.00 0.15 0.04 63 1020.8
20260831031634 66 98 0.0 0.0 0.00 0.15 0.04 63 1020.9
20260831031134 66 98 0.0 0.0 0.00 0.15 0.04 63 1020.9
20260831030634 66 98 0.0 0.0 0.00 0.15 0.04 63 1020.8
20260831030134 66 98 0.0 0.0 0.00 0.15 0.04 63 1020.7
20260831025634 66 98 0.0 0.0 0.00 0.15 0.04 62 1020.7
20260831025134 67 98 0.0 0.0 0.00 0.15 0.04 62 1020.6
20260831024634 67 98 0.0 0.0 0.00 0.15 0.04 62 1020.7
20260831024134 67 98 0.0 0.0 0.00 0.15 0.04 61 1020.6
20260831023634 68 98 0.0 0.0 0.00 0.15 0.04 61 1020.5
20260831023134 68 98 0.0 0.0 0.00 0.15 0.04 61 1020.6
20260831022634 68 98 0.0 0.0 0.00 0.15 0.04 60 1020.5
20260831022134 69 98 0.0 0.0 0.00 0.15 0.04 60 1020.6
20260831021634 69 98 0.0 0.0 0.00 0.15 0.04 59 1020.5
20260831021134 70 98 0.0 0.0 0.00 0.15 0.04 58 1020.5
20260831020634 70 98 0.0 0.0 0.00 0.15 0.04 57 1020.5
20260831020134 71 98 0.0 0.0 0.00 0.15 0.04 56 1020.4
20260831015634 71 98 0.0 0.0 0.00 0.15 0.04 55 1020.3
20260831015134 71 98 0.0 0.0 0.00 0.15 0.04 54 1020.4
20260831014634 71 98 0.0 0.0 0.00 0.15 0.04 52 1020.4
20260831014134 72 98 0.0 0.0 0.00 0.15 0.04 52 1020.4
20260831013634 72 98 0.0 0.0 0.00 0.15 0.04 52 1020.3
20260831013134 72 98 0.0 0.0 0.00 0.15 0.04 52 1020.4
20260831012634 72 98 0.0 0.0 0.00 0.15 0.04 51 1020.3
20260831012134 73 98 0.0 0.0 0.00 0.15 0.04 52 1020.4
20260831011634 73 98 0.0 0.0 0.00 0.15 0.04 51 1020.4
20260831011134 73 98 0.0 0.0 0.00 0.15 0.04 50 1020.4
20260831010634 73 98 0.0 0.0 0.00 0.15 0.04 51 1020.4
20260831010134 74 98 0.0 3.0 0.00 0.15 0.04 50 1020.4
20260831005634 74 98 0.0 3.0 0.00 0.15 0.04 51 1020.4
20260831005134 74 99 0.0 0.0 0.00 0.15 0.04 50 1020.4
20260831004634 74 99 0.0 3.0 0.00 0.15 0.04 49 1020.4
20260831004134 74 105 0.0 3.0 0.00 0.15 0.04 50 1020.5
20260831003634 75 105 0.0 2.0 0.00 0.15 0.04 49 1020.5
20260831003134 75 105 0.0 3.0 0.00 0.15 0.04 49 1020.5
20260831002634 75 105 0.0 0.0 0.00 0.25 0.04 49 1020.4
20260831002134 75 105 0.0 7.0 0.00 0.25 0.04 49 1020.5
20260831001634 75 106 0.0 1.0 0.00 0.25 0.04 47 1020.5
20260831001134 75 106 0.0 0.0 0.00 0.25 0.04 47 1020.5
20260831000635 75 106 0.0 4.0 0.00 0.25 0.04 47 1020.5
20260831000134 75 107 0.0 3.0 0.00 0.25 0.04 47 1020.6
20260830235634 75 107 0.0 0.0 0.00 0.25 0.04 46 1020.4
20260830235135 75 107 0.0 0.0 0.00 0.25 0.04 46 1020.4
20260830234634 75 107 0.0 1.0 0.00 0.25 0.04 46 1020.5
20260830234135 76 107 0.0 2.0 0.00 0.25 0.04 46 1020.5
20260830233635 76 107 0.0 5.0 0.00 0.25 0.04 45 1020.5
20260830233135 76 121 0.0 4.0 0.00 0.25 0.04 45 1020.7
20260830232635 76 141 0.0 0.0 0.00 0.25 0.04 47 1020.7
20260830232135 76 141 0.0 3.0 0.00 0.25 0.04 48 1020.7
20260830231635 76 146 0.0 0.0 0.00 0.25 0.04 50 1020.7
20260830231135 76 146 0.0 3.0 0.00 0.25 0.04 47 1020.7
20260830230635 76 146 1.0 2.0 0.00 0.25 0.04 51 1020.7
20260830230135 76 146 1.0 3.0 0.00 0.25 0.04 51 1020.8
20260830225635 75 148 0.0 2.0 0.00 0.25 0.04 51 1020.8
20260830225135 75 148 0.0 2.0 0.00 0.25 0.04 46 1021.0
20260830224635 75 148 1.0 4.0 0.00 0.25 0.04 45 1020.8
20260830224135 75 171 0.0 2.0 0.00 0.25 0.04 46 1020.8
20260830223635 75 172 0.0 2.0 0.00 0.25 0.04 44 1020.9
20260830223135 75 172 0.0 0.0 0.00 0.25 0.04 44 1020.9
20260830222635 75 172 0.0 2.0 0.00 0.29 0.04 43 1020.9
20260830222135 75 172 0.0 2.0 0.00 0.29 0.04 43 1020.9
20260830221635 75 172 0.0 3.0 0.00 0.29 0.04 42 1020.9
20260830221135 75 172 1.0 3.0 0.00 0.29 0.04 44 1020.8
20260830220635 75 172 1.0 4.0 0.00 0.29 0.04 44 1020.7
20260830220135 75 173 1.0 4.0 0.00 0.29 0.04 45 1020.8
20260830215635 75 173 1.0 3.0 0.00 0.29 0.04 46 1021.0
20260830215135 75 173 2.0 4.0 0.00 0.29 0.04 46 1020.9
20260830214635 76 166 2.0 6.0 0.00 0.29 0.04 46 1020.8
20260830214135 77 173 2.0 6.0 0.00 0.29 0.04 45 1020.6
20260830213635 77 204 2.0 6.0 0.00 0.29 0.04 44 1020.7
20260830213135 78 165 1.0 5.0 0.00 0.29 0.04 44 1020.7
20260830212635 79 165 1.0 2.0 0.00 0.29 0.04 46 1020.6
20260830212135 79 165 1.0 4.0 0.00 0.29 0.04 49 1020.5
20260830211635 79 167 1.0 6.0 0.00 0.29 0.04 45 1020.5
20260830211135 78 198 1.0 3.0 0.00 0.29 0.04 48 1020.7
20260830210635 78 198 1.0 3.0 0.00 0.29 0.04 50 1020.8
20260830210135 77 194 2.0 3.0 0.00 0.29 0.04 49 1020.9
20260830205635 77 187 3.0 6.0 0.00 0.29 0.04 49 1020.9
20260830205135 77 171 3.0 6.0 0.00 0.29 0.04 49 1020.9
20260830204635 77 188 3.0 6.0 0.00 0.29 0.04 51 1021.0
20260830204135 78 192 2.0 4.0 0.00 0.29 0.04 51 1021.0
20260830203635 78 200 2.0 4.0 0.00 0.29 0.04 49 1021.2
20260830203135 79 200 2.0 4.0 0.00 0.29 0.04 48 1021.2
20260830202635 79 200 2.0 5.0 0.00 0.29 0.04 49 1021.3
20260830202135 79 202 2.0 5.0 0.00 0.29 0.04 49 1021.4
20260830201635 79 201 2.0 4.0 0.00 0.29 0.04 52 1021.2
20260830201135 78 204 2.0 4.0 0.00 0.29 0.04 52 1021.4
20260830200635 78 211 2.0 5.0 0.00 0.29 0.04 52 1021.4
20260830200135 77 225 2.0 6.0 0.00 0.29 0.04 52 1021.5
20260830195635 77 198 2.0 5.0 0.00 0.29 0.04 54 1021.5
20260830195135 77 198 2.0 4.0 0.00 0.29 0.04 55 1021.6
20260830194635 77 197 2.0 10.0 0.00 0.29 0.04 54 1021.7
20260830194135 77 198 2.0 5.0 0.00 0.29 0.04 54 1021.7
20260830193635 77 221 2.0 5.0 0.00 0.29 0.04 54 1021.7
20260830193135 76 193 2.0 4.0 0.00 0.29 0.04 54 1021.8
20260830192635 76 184 2.0 8.0 0.00 0.29 0.04 54 1021.8
20260830192135 76 198 2.0 4.0 0.00 0.29 0.04 57 1021.9
20260830191635 76 191 2.0 6.0 0.00 0.29 0.04 55 1022.0
20260830191135 76 201 1.0 6.0 0.00 0.29 0.04 55 1022.1
20260830190635 76 191 2.0 4.0 0.00 0.29 0.04 57 1022.1
20260830190135 75 167 2.0 7.0 0.00 0.29 0.04 57 1022.3
20260830185635 75 189 3.0 12.0 0.00 0.29 0.04 58 1022.3
20260830185135 75 182 3.0 8.0 0.00 0.29 0.04 59 1022.3
20260830184635 75 186 3.0 7.0 0.00 0.29 0.04 59 1022.3
20260830184135 75 212 2.0 10.0 0.00 0.29 0.04 58 1022.4
20260830183635 75 186 2.0 5.0 0.00 0.29 0.04 59 1022.4
20260830183135 74 174 3.0 6.0 0.00 0.29 0.04 59 1022.5
20260830182635 74 209 3.0 6.0 0.00 0.29 0.04 58 1022.6
20260830182135 74 214 3.0 12.0 0.00 0.29 0.04 58 1022.5
20260830181635 74 166 1.0 8.0 0.00 0.29 0.04 58 1022.5
20260830181135 74 186 1.0 4.0 0.00 0.29 0.04 57 1022.6
20260830180635 74 169 1.0 4.0 0.00 0.29 0.04 57 1022.6
20260830180135 74 176 1.0 5.0 0.00 0.29 0.04 57 1022.5
20260830175635 73 169 1.0 7.0 0.00 0.29 0.04 59 1022.5
20260830175135 73 169 1.0 7.0 0.00 0.29 0.04 61 1022.6
20260830174635 73 161 1.0 6.0 0.00 0.29 0.04 59 1022.7
20260830174135 73 161 1.0 6.0 0.00 0.29 0.04 59 1022.7
20260830173635 73 167 1.0 7.0 0.00 0.29 0.04 59 1022.7
20260830173135 72 201 0.0 0.0 0.00 0.29 0.04 58 1022.6
20260830172635 72 202 0.0 0.0 0.00 0.29 0.04 54 1022.6
20260830172135 71 202 0.0 0.0 0.00 0.29 0.04 56 1022.6
20260830171635 71 202 0.0 1.0 0.00 0.29 0.04 57 1022.5
20260830171135 71 202 0.0 0.0 0.00 0.29 0.04 57 1022.5
20260830170635 71 201 1.0 6.0 0.00 0.29 0.04 60 1022.5
20260830170135 70 205 0.0 5.0 0.00 0.29 0.04 60 1022.5
20260830165635 70 206 0.0 0.0 0.00 0.29 0.04 63 1022.5
20260830165135 70 206 0.0 0.0 0.00 0.29 0.04 63 1022.5
20260830164635 69 206 0.0 0.0 0.00 0.29 0.04 60 1022.4
20260830164135 69 206 0.0 2.0 0.00 0.29 0.04 63 1022.3
20260830163635 69 206 0.0 2.0 0.00 0.29 0.04 62 1022.3
20260830163135 69 206 0.0 0.0 0.00 0.29 0.04 63 1022.3
20260830162635 69 206 0.0 3.0 0.00 0.54 0.04 66 1022.2
20260830162135 68 205 0.0 0.0 0.00 0.54 0.04 64 1021.9
20260830161635 67 205 0.0 0.0 0.00 0.54 0.04 67 1022.0
20260830161135 67 205 0.0 0.0 0.00 0.54 0.04 70 1022.1
20260830160635 66 205 0.0 0.0 0.00 0.54 0.04 71 1022.2
20260830155135 65 205 0.0 0.0 0.00 0.54 0.04 79 1022.2
20260830154635 64 205 0.0 0.0 0.00 0.54 0.04 81 1022.2
20260830154135 64 205 0.0 0.0 0.00 0.54 0.04 82 1022.2
20260830153635 63 205 0.0 0.0 0.00 0.54 0.04 82 1022.3
20260830153135 63 205 0.0 0.0 0.00 0.54 0.04 84 1022.3
20260830152635 63 205 0.0 0.0 0.00 0.54 0.04 84 1022.2
20260830152135 63 205 0.0 0.0 0.00 0.54 0.04 84 1022.1
20260830151635 62 205 0.0 0.0 0.00 0.54 0.04 83 1022.2
20260830151135 62 205 0.0 0.0 0.00 0.54 0.04 84 1022.2
20260830150635 62 205 0.0 0.0 0.00 0.54 0.04 88 1022.3
20260830150135 62 205 0.0 0.0 0.00 0.54 0.04 88 1022.4
20260830145635 61 205 0.0 0.0 0.00 0.54 0.04 87 1022.3
20260830145135 61 205 0.0 0.0 0.00 0.54 0.04 86 1022.1
20260830144635 61 205 0.0 0.0 0.00 0.54 0.04 87 1022.2
20260830144135 61 205 0.0 0.0 0.00 0.54 0.04 88 1022.2
20260830143635 60 205 0.0 0.0 0.00 0.54 0.04 90 1022.1
20260830143135 60 205 0.0 0.0 0.00 0.54 0.04 92 1022.3
20260830142635 59 205 0.0 0.0 0.00 0.54 0.04 92 1022.3
20260830142135 58 205 0.0 0.0 0.00 0.54 0.04 92 1022.4
20260830141635 58 205 0.0 0.0 0.01 0.54 0.04 92 1022.4
20260830141135 57 205 0.0 0.0 0.03 0.54 0.04 91 1022.3
20260830140635 57 205 0.0 0.0 0.03 0.54 0.04 90 1022.3
20260830140135 57 205 0.0 0.0 0.03 0.54 0.04 90 1022.3
20260830135635 57 205 0.0 0.0 0.03 0.54 0.04 90 1022.2
20260830135135 57 205 0.0 0.0 0.03 0.54 0.04 90 1022.1
20260830134635 57 205 0.0 0.0 0.03 0.54 0.04 90 1022.1
20260830134136 58 205 0.0 0.0 0.03 0.54 0.04 89 1022.0
20260830133636 58 205 0.0 0.0 0.03 0.54 0.04 89 1022.0
20260830133135 58 205 0.0 0.0 0.03 0.54 0.04 90 1021.9
20260830132636 58 205 0.0 3.0 0.04 0.64 0.04 90 1021.9
20260830132136 58 205 0.0 0.0 0.04 0.64 0.04 90 1021.8
20260830131635 59 205 0.0 0.0 0.03 0.63 0.03 90 1021.8
20260830131136 59 205 0.0 0.0 0.01 0.61 0.01 90 1022.1
20260830130636 59 205 0.0 0.0 0.01 0.61 0.01 90 1021.9
20260830130136 59 205 0.0 3.0 0.01 0.61 0.01 89 1022.0
20260830125636 59 205 0.0 0.0 0.01 0.61 0.01 89 1021.8
20260830125136 59 205 0.0 0.0 0.01 0.61 0.01 89 1021.5
20260830124636 59 205 0.0 0.0 0.01 0.61 0.01 89 1021.5
20260830124136 59 205 0.0 0.0 0.01 0.61 0.01 89 1021.6
20260830123636 59 205 0.0 0.0 0.01 0.61 0.01 89 1021.8
20260830123136 59 205 0.0 0.0 0.01 0.61 0.01 88 1021.9
20260830122636 59 205 0.0 2.0 0.00 0.60 0.00 88 1021.9
20260830122136 59 205 0.0 0.0 0.00 0.60 0.00 88 1021.6
20260830121636 59 205 0.0 0.0 0.00 0.60 0.00 87 1021.8
20260830121136 59 205 0.0 1.0 0.00 0.60 0.00 86 1021.5
20260830120636 58 205 0.0 0.0 0.00 0.60 0.00 85 1021.3
20260830120136 58 205 0.0 0.0 0.00 0.60 0.00 84 1021.3
20260830115636 58 205 0.0 0.0 0.00 0.60 0.00 84 1021.4
20260830115227 59 205 0.0 0.0 0.00 0.60 0.00 85 1021.3
20260830114636 59 205 0.0 0.0 0.00 0.60 0.00 84 1021.5
20260830114136 59 205 0.0 0.0 0.00 0.60 0.00 84 1021.6
20260830113636 59 205 0.0 0.0 0.00 0.60 0.00 83 1021.6
20260830113136 60 205 0.0 0.0 0.00 0.60 0.00 83 1021.7
20260830112636 60 205 0.0 0.0 0.00 0.60 0.00 83 1021.8
20260830112136 60 205 0.0 0.0 0.00 0.60 0.00 83 1021.6
20260830111636 60 205 0.0 0.0 0.00 0.60 0.00 82 1022.2
20260830111136 60 205 0.0 0.0 0.00 0.60 0.00 82 1021.5
20260830110636 60 205 0.0 0.0 0.00 0.60 0.00 81 1020.9
20260830110136 60 205 0.0 0.0 0.00 0.60 0.00 81 1021.0
20260830105636 60 205 0.0 0.0 0.00 0.60 0.00 81 1021.0
20260830105136 60 205 0.0 0.0 0.00 0.60 0.00 80 1021.0
20260830104636 60 205 0.0 0.0 0.00 0.60 0.00 79 1021.0
20260830104136 60 205 0.0 0.0 0.00 0.60 0.00 79 1021.0
20260830103636 60 205 0.0 0.0 0.00 0.60 0.00 79 1021.1
20260830103136 60 205 0.0 0.0 0.00 0.60 0.00 79 1021.2
20260830102636 60 205 0.0 0.0 0.00 0.60 0.00 79 1021.3
20260830102136 60 205 1.0 2.0 0.00 0.60 0.00 79 1021.4
20260830101636 61 205 0.0 0.0 0.00 0.60 0.00 79 1021.4
20260830101136 61 205 0.0 0.0 0.00 0.60 0.00 78 1021.6
20260830100636 61 205 0.0 0.0 0.00 0.60 0.00 77 1021.4
20260830100136 60 205 0.0 0.0 0.00 0.60 0.00 77 1021.3
20260830095636 60 205 0.0 0.0 0.00 0.60 0.00 78 1021.2
20260830095136 60 205 0.0 0.0 0.00 0.60 0.00 78 1021.0
20260830094636 61 205 0.0 0.0 0.00 0.60 0.00 77 1021.0
20260830094136 61 205 0.0 0.0 0.00 0.60 0.00 77 1021.1
20260830093636 61 205 0.0 0.0 0.00 0.60 0.00 76 1021.0
20260830093136 62 205 0.0 0.0 0.00 0.60 0.00 76 1021.3
20260830092636 62 205 1.0 3.0 0.00 0.61 0.00 76 1021.4
20260830092136 62 205 1.0 3.0 0.00 0.61 0.00 77 1021.6
20260830091636 62 205 0.0 4.0 0.00 0.61 0.00 77 1021.7
20260830091136 62 205 0.0 0.0 0.00 0.61 0.00 75 1021.6
20260830090636 62 205 0.0 0.0 0.00 0.61 0.00 74 1021.6
20260830090136 63 205 0.0 0.0 0.00 0.61 0.00 73 1021.3
20260830085636 63 205 0.0 0.0 0.00 0.61 0.00 72 1021.3
20260830085136 63 205 0.0 1.0 0.00 0.61 0.00 72 1021.3
20260830084636 63 205 1.0 3.0 0.00 0.61 0.00 73 1021.2
20260830084136 63 205 1.0 4.0 0.00 0.61 0.00 73 1021.2
20260830083636 63 205 0.0 5.0 0.00 0.61 0.00 72 1021.4
20260830083136 64 201 1.0 0.0 0.00 0.61 0.00 71 1021.6
20260830082636 64 201 2.0 5.0 0.00 0.70 0.00 72 1021.5
20260830082136 64 201 3.0 7.0 0.00 0.70 0.00 70 1021.3
20260830081636 64 200 3.0 7.0 0.00 0.70 0.00 70 1020.9
20260830081136 64 200 2.0 6.0 0.00 0.70 0.00 71 1020.9
20260830080636 64 208 1.0 5.0 0.00 0.70 0.00 70 1021.0
20260830080136 64 203 1.0 3.0 0.00 0.70 0.00 69 1021.1
20260830075636 64 203 1.0 4.0 0.00 0.70 0.00 67 1021.2
20260830075136 64 203 2.0 4.0 0.00 0.70 0.00 69 1021.1
20260830074636 64 204 1.0 5.0 0.00 0.70 0.00 69 1020.7
20260830074136 63 222 0.0 5.0 0.00 0.70 0.00 69 1020.7
20260830073636 63 222 0.0 2.0 0.00 0.70 0.00 71 1020.5
20260830073136 63 222 0.0 0.0 0.00 0.70 0.00 72 1020.7
20260830072636 64 222 0.0 0.0 0.00 0.70 0.00 73 1021.0
20260830072136 64 222 0.0 0.0 0.00 0.70 0.00 72 1021.1
20260830071636 64 222 0.0 0.0 0.00 0.70 0.00 73 1021.0
20260830071136 65 222 0.0 1.0 0.00 0.70 0.00 69 1020.9
20260830070636 65 222 2.0 3.0 0.00 0.70 0.00 64 1020.3
20260830070136 64 221 3.0 9.0 0.00 0.70 0.00 66 1019.9
20260830065636 64 174 4.0 6.0 0.00 0.70 0.00 67 1020.1
20260830065136 64 234 4.0 7.0 0.00 0.70 0.00 70 1020.6
20260830064636 63 190 4.0 7.0 0.00 0.70 0.00 72 1020.6
20260830064136 63 201 4.0 7.0 0.01 0.70 0.00 76 1020.4
20260830063636 63 198 3.0 9.0 0.01 0.70 0.00 81 1020.4
20260830063136 63 233 2.0 9.0 0.01 0.70 0.00 81 1020.5
20260830062636 62 240 0.0 4.0 0.01 0.71 0.00 79 1020.9
20260830062136 62 241 0.0 0.0 0.01 0.71 0.00 77 1020.4
20260830061636 62 241 0.0 0.0 0.01 0.71 0.00 76 1020.4
20260830061136 63 241 1.0 4.0 0.01 0.71 0.00 76 1021.1
20260830060636 63 243 2.0 6.0 0.01 0.71 0.00 76 1020.5
20260830060136 63 238 3.0 6.0 0.01 0.71 0.00 75 1020.1
20260830055636 63 143 5.0 11.0 0.01 0.71 0.71 73 1020.4
20260830055136 64 209 5.0 12.0 0.02 0.71 0.71 71 1020.1
20260830054636 64 228 4.0 9.0 0.04 0.71 0.71 64 1020.1
20260830054136 63 216 3.0 7.0 0.04 0.70 0.70 64 1020.2
20260830053636 63 161 4.0 9.0 0.06 0.70 0.70 64 1020.4
20260830053136 62 204 3.0 7.0 0.07 0.70 0.70 65 1020.2
20260830052636 61 209 3.0 6.0 0.08 0.70 0.70 69 1020.0
20260830052136 60 164 4.0 7.0 0.08 0.70 0.70 71 1019.9
20260830051636 60 219 4.0 7.0 0.09 0.70 0.70 73 1020.0
20260830051136 59 210 3.0 8.0 0.09 0.70 0.70 76 1019.9
20260830050636 59 213 2.0 6.0 0.09 0.70 0.70 77 1020.7
20260830050136 60 222 2.0 5.0 0.09 0.70 0.70 76 1021.2
20260830045636 60 223 2.0 6.0 0.09 0.70 0.70 75 1022.6
20260830045136 61 229 2.0 6.0 0.08 0.69 0.69 72 1023.0
20260830044636 62 284 3.0 13.0 0.06 0.67 0.67 69 1023.2
20260830044136 63 248 3.0 27.0 0.05 0.66 0.66 66 1023.1
20260830043636 64 244 4.0 15.0 0.04 0.64 0.64 63 1022.5
20260830043136 64 266 5.0 17.0 0.03 0.63 0.63 62 1022.2
20260830042636 65 272 5.0 20.0 0.02 0.62 0.62 60 1022.2
20260830042136 66 279 5.0 16.0 0.02 0.63 0.62 59 1021.7
20260830041636 65 271 4.0 14.0 0.01 0.62 0.61 59 1021.4
20260830041136 65 259 3.0 12.0 0.01 0.62 0.61 63 1021.3
20260830040636 64 242 3.0 7.0 0.01 0.62 0.61 65 1020.7
20260830040137 64 174 3.0 6.0 0.01 0.62 0.61 66 1020.8
20260830035637 65 244 2.0 6.0 0.01 0.62 0.61 67 1021.0
20260830035136 64 183 3.0 5.0 0.01 0.62 0.61 65 1021.0
20260830034637 65 192 4.0 8.0 0.01 0.62 0.61 66 1020.8
20260830034136 65 217 5.0 7.0 0.01 0.62 0.61 65 1020.8
20260830033636 66 203 4.0 10.0 0.00 0.61 0.60 62 1020.7
20260830033136 66 276 2.0 8.0 0.00 0.61 0.60 59 1021.1